Home > Weather > Poznan > Past weeks

Flag for Poland Past Weather in Poznan, Poland — Yesterday and Last 2 Weeks

Now
70 °F

Sunny.


Feels Like: 70 °F
Forecast: 63 / 77 °F
Wind: 6 mph from Southeast

Location: Poznan Airport

Current Time: Aug 28, 2016 at 9:08:27 AM

Latest Report: Aug 28, 2016 at 8:30 AM


Visibility: 10 mi

Pressure: 30.04 "Hg

Humidity: 64%

Dew Point: 57 °F

Location of PoznanLocation

Past Weather in Poznan — Graph

°F

Poznan Temperature Yesterday

Maximum temperature yesterday: 88 °F (at 3:00 PM)
Minimum temperature yesterday: 57 °F (at 5:30 AM)
Average temperature yesterday: 74 °F

High & Low Weather Summary for the Past Weeks

 TemperatureHumidityPressure
High88 °F (Aug 27, 3:00 PM)94% (Aug 13, 8:00 AM)30.33 "Hg (Aug 13, 8:00 AM)
Low48 °F (Aug 17, 6:00 AM)33% (Aug 27, 4:00 PM)29.80 "Hg (Aug 18, 7:30 AM)
Average65 °F71%30.09 "Hg
* Reported Aug 13 8:00 AM — Aug 28 8:00 AM, Poznan, Weather by CustomWeather, © 2016

Note: Actual official high and low records may vary slightly from our data, if they occured in-between our weather recording intervals... More about our weather records

Advertising

Poznan Weather History for the Previous 24 Hours

Scroll right to see more
 ConditionsComfort  
Time TempWeatherWind HumidityBarometerVisibility
8:00 AM
Sun, Aug 28
68 °FSunny.6 mph69%30.04 "Hg10 mi
7:30 AM64 °FSunny.3 mph83%30.04 "Hg10 mi
7:00 AM61 °FSunny.3 mph88%30.04 "Hg10 mi
6:30 AM61 °FClear.3 mph88%30.04 "Hg10 mi
6:00 AM61 °FClear.3 mph88%30.04 "Hg10 mi
5:30 AM61 °FClear.3 mph88%30.04 "Hg10 mi
5:00 AM61 °FClear.3 mph94%30.04 "Hg10 mi
4:30 AM61 °FClear.5 mph94%30.04 "Hg10 mi
4:00 AM61 °FClear.7 mph88%30.04 "Hg10 mi
3:30 AM64 °FClear.5 mph83%30.04 "Hg10 mi
3:00 AM63 °FClear.5 mph88%30.07 "Hg10 mi
2:30 AM64 °FPassing clouds.3 mph83%30.07 "HgN/A
2:00 AM63 °FClear.1 mph83%30.07 "Hg10 mi
1:30 AM64 °FClear.2 mph88%30.07 "Hg10 mi
1:00 AM64 °FClear.1 mph88%30.09 "Hg10 mi
12:30 AM68 °FClear.2 mph78%30.09 "Hg10 mi
12:00 AM66 °FClear.1 mph78%30.09 "Hg10 mi
11:30 PM
Sat, Aug 27
66 °FClear.2 mph83%30.09 "Hg10 mi
11:00 PM66 °FClear.No wind88%30.09 "Hg10 mi
10:30 PM68 °FClear.1 mph78%30.09 "Hg10 mi
10:00 PM70 °FClear.No wind78%30.09 "Hg10 mi
9:30 PM72 °FClear.No wind65%30.09 "Hg10 mi
9:00 PM73 °FClear.No wind65%30.09 "Hg10 mi
8:30 PM75 °FSunny.1 mph61%30.09 "Hg10 mi
8:00 PM79 °FSunny.1 mph58%30.09 "Hg10 mi
7:30 PM84 °FSunny.2 mph40%30.09 "Hg10 mi
7:00 PM86 °FSunny.2 mph40%30.09 "Hg10 mi
6:30 PM86 °FPassing clouds.3 mph35%30.09 "HgN/A
6:00 PM88 °FSunny.1 mph33%30.09 "Hg10 mi
5:30 PM88 °FSunny.2 mph33%30.09 "Hg10 mi
5:00 PM88 °FPassing clouds.3 mph33%30.09 "HgN/A
4:30 PM88 °FPassing clouds.5 mph33%30.09 "HgN/A
4:00 PM88 °FPassing clouds.5 mph33%30.09 "HgN/A
3:30 PM86 °FSunny.2 mph35%30.09 "Hg10 mi
3:00 PM88 °FSunny.3 mph35%30.12 "Hg10 mi
2:30 PM86 °FSunny.3 mph38%30.12 "Hg10 mi
2:00 PM86 °FPassing clouds.6 mph38%30.12 "HgN/A
1:30 PM84 °FPassing clouds.6 mph40%30.12 "HgN/A
1:00 PM84 °FPassing clouds.7 mph40%30.12 "HgN/A
12:30 PM82 °FPassing clouds.7 mph42%30.12 "HgN/A
12:00 PM82 °FPassing clouds.6 mph42%30.12 "HgN/A
11:30 AM81 °FPassing clouds.6 mph48%30.12 "HgN/A
11:00 AM79 °FPassing clouds.6 mph48%30.12 "HgN/A
10:30 AM77 °FPassing clouds.6 mph51%30.12 "HgN/A
10:00 AM75 °FPassing clouds.7 mph54%30.12 "HgN/A
9:30 AM73 °FPassing clouds.3 mph61%30.12 "HgN/A
9:00 AM72 °FSunny.2 mph65%30.12 "Hg10 mi
Weather by CustomWeather, © 2016

See weather overviewHow to use our weather pages